Starlink 31377

operational
NORAD ID: 58938 Int'l Des: 2024-027 Owner: SPXS Country: US Constellation: starlink
LEOCIRCULAR

Über Starlink 31377

Beschreibung wird geladen...

Live-Position

3D-Globus wird geladen...

Nächste Überflüge

Höhenverlauf

Altitude vs Time

uPlot chart will show altitude changes over time

Zweizeiliger Elementsatz

1 58938U 24027H 25306.38616274 .00001157 00000-0 51200-4 0 9997
2 58938 53.1598 181.2105 0001372 95.3777 264.7381 15.30190339 97837
Epoch: 2. Nov. 2025 • Age: 43 hours

Aktueller Status

Höhe 494.4 km
Geschwindigkeit 7.62 km/s
Subsatellitenpunkt -52.58°S, 44.98°W
Startdatum 10. Feb. 2024
Alter 1.7 years
Typ internet

Technische Details

Klassifizierung Payload
Masse 730.00 kg
Trockenmasse 700.00 kg
Gesamtmasse 730.00 kg
Länge 0.30 m
Durchmesser 4.10 m
Spannweite 29.00 m
Form Box + pan
Hersteller SPXS
Bus-Typ Starlink V2M
Phasenstatus In Orbit
Besitzer/Staat SPXS/US

Große Konstellationen

Loading constellations...